Weather History for KIWD - June, 2013

Change the Weather History Date:

Saturday, June 1, 2013

  Actual Average Record
Temperature  
Mean Temperature 52 °F -  
Max Temperature 64 °F 65 °F 82 °F (1997)
Min Temperature 39 °F 42 °F 30 °F (2003)
Degree Days  
Heating Degree Days 12    
Growing Degree Days 2 (Base 50)    
Moisture  
Dew Point 48 °F    
Average Humidity 73    
Maximum Humidity 87    
Minimum Humidity 63    
Precipitation  
Precipitation 0.05 in - - ()
Sea Level Pressure  
Sea Level Pressure 29.63 in    
Wind  
Wind Speed 6 mph (SW)    
Max Wind Speed 13 mph    
Max Gust Speed 18 mph    
Visibility 9 miles    
Events      
Averages and records for this station are not official NWS values.
T = Trace of Precipitation, MM = Missing Value Source: NWS Daily Summary

Daily Weather History Graph

Daily Weather History Graph

Search for Another Location

Airport or City:

Trip Planner

Search our weather history database for the weather conditions in past years. The results will help you decide how hot, cold, wet, or windy it might be!

Date:

Astronomy

Jun. 01, 2013 Rise Set
Actual Time 5:11 AM CDT 8:46 PM CDT
Civil Twilight 4:33 AM CDT 9:24 PM CDT
Nautical Twilight 3:42 AM CDT 10:15 PM CDT
Astronomical Twilight 2:34 AM CDT 11:23 PM CDT
Moon 1:30 AM CDT (6/1) 1:54 PM CDT (6/1)
Length of Visible Light 16h 51m
Length of Day
15h 35m
Last Quarter, 40% of the Moon is Illuminated
Jun 1
Last Quarter
Jun 8
New
Jun 16
First Quarter
Jun 23
Full
Jun 29
Last Quarter

Hourly Weather History & Observations

Time (CDT) Temp. Windchill Dew Point Humidity Pressure Visibility Wind Dir Wind Speed Gust Speed Precip Events Conditions
12:15 AM 57.2 °F - 48.2 °F 72% 29.60 in 10.0 mi East 4.6 mph - N/A   Mostly Cloudy
12:35 AM 57.2 °F - 48.2 °F 72% 29.61 in 10.0 mi SSE 6.9 mph - N/A   Overcast
12:55 AM 57.2 °F - 48.2 °F 72% 29.62 in 10.0 mi South 8.1 mph - N/A   Overcast
1:15 AM 57.2 °F - 48.2 °F 72% 29.61 in 10.0 mi South 8.1 mph - N/A   Overcast
1:35 AM 57.2 °F - 48.2 °F 72% 29.60 in 10.0 mi SSE 8.1 mph - N/A   Mostly Cloudy
1:55 AM 57.2 °F - 48.2 °F 72% 29.59 in 10.0 mi South 9.2 mph - N/A   Partly Cloudy
2:15 AM 57.2 °F - 48.2 °F 72% 29.59 in 10.0 mi South 10.4 mph - N/A   Mostly Cloudy
2:35 AM 57.2 °F - 48.2 °F 72% 29.59 in 10.0 mi South 10.4 mph 17.3 mph N/A   Scattered Clouds
2:55 AM 57.2 °F - 48.2 °F 72% 29.58 in 10.0 mi South 9.2 mph 18.4 mph N/A   Clear
3:15 AM 57.2 °F - 48.2 °F 72% 29.57 in 10.0 mi South 8.1 mph 16.1 mph N/A   Mostly Cloudy
3:35 AM 57.2 °F - 48.2 °F 72% 29.56 in 10.0 mi SSW 5.8 mph - N/A   Scattered Clouds
3:55 AM 57.2 °F - 48.2 °F 72% 29.55 in 10.0 mi Calm Calm - N/A   Mostly Cloudy
4:15 AM 57.2 °F - 48.2 °F 72% 29.54 in 10.0 mi SSE 9.2 mph - N/A   Mostly Cloudy
4:35 AM 57.2 °F - 48.2 °F 72% 29.57 in 10.0 mi WSW 8.1 mph - N/A   Mostly Cloudy
4:55 AM 57.2 °F - 50.0 °F 77% 29.59 in 10.0 mi WSW 3.5 mph - N/A   Mostly Cloudy
5:15 AM 57.2 °F - 50.0 °F 77% 29.58 in 10.0 mi SW 4.6 mph - N/A   Mostly Cloudy
5:35 AM 57.2 °F - 50.0 °F 77% 29.58 in 10.0 mi South 3.5 mph - N/A   Mostly Cloudy
5:55 AM 57.2 °F - 50.0 °F 77% 29.59 in 10.0 mi South 5.8 mph - N/A   Overcast
6:15 AM 57.2 °F - 50.0 °F 77% 29.61 in 10.0 mi Calm Calm - N/A   Overcast
6:35 AM 57.2 °F - 50.0 °F 77% 29.61 in 10.0 mi South 5.8 mph - N/A   Mostly Cloudy
6:55 AM 57.2 °F - 50.0 °F 77% 29.62 in 10.0 mi South 3.5 mph - N/A   Scattered Clouds
7:15 AM 57.2 °F - 50.0 °F 77% 29.61 in 10.0 mi SSW 3.5 mph - N/A   Scattered Clouds
7:35 AM 60.8 °F - 51.8 °F 72% 29.61 in 8.0 mi WSW 3.5 mph - N/A   Mostly Cloudy
7:55 AM 60.8 °F - 50.0 °F 68% 29.60 in 10.0 mi Calm Calm - N/A   Partly Cloudy
8:15 AM 60.8 °F - 50.0 °F 68% 29.60 in 10.0 mi South 5.8 mph - N/A   Clear
8:35 AM 62.6 °F - 50.0 °F 63% 29.60 in 10.0 mi SW 3.5 mph - N/A   Clear
8:55 AM 62.6 °F - 51.8 °F 68% 29.61 in 10.0 mi SW 5.8 mph - N/A   Clear
9:15 AM 62.6 °F - 50.0 °F 63% 29.61 in 10.0 mi WSW 4.6 mph - N/A   Scattered Clouds
9:35 AM 62.6 °F - 51.8 °F 68% 29.61 in 10.0 mi West 3.5 mph - N/A   Mostly Cloudy
9:55 AM 62.6 °F - 51.8 °F 68% 29.61 in 10.0 mi Calm Calm - N/A   Scattered Clouds
10:15 AM 64.4 °F - 51.8 °F 64% 29.61 in 10.0 mi Calm Calm - N/A   Partly Cloudy
10:35 AM 64.4 °F - 51.8 °F 64% 29.61 in 10.0 mi ESE 4.6 mph - N/A   Clear
10:55 AM 64.4 °F - 51.8 °F 64% 29.61 in 10.0 mi South 4.6 mph - N/A   Scattered Clouds
11:15 AM 64.4 °F - 53.6 °F 68% 29.61 in 10.0 mi South 5.8 mph - N/A   Mostly Cloudy
11:35 AM 64.4 °F - 53.6 °F 68% 29.62 in 10.0 mi SSW 6.9 mph - N/A   Overcast
11:55 AM 64.4 °F - 53.6 °F 68% 29.62 in 10.0 mi SSE 8.1 mph - N/A   Overcast
12:15 PM 64.4 °F - 51.8 °F 64% 29.62 in 10.0 mi SSW 5.8 mph - N/A   Overcast
12:35 PM 62.6 °F - 53.6 °F 72% 29.62 in 10.0 mi SW 5.8 mph - N/A   Overcast
12:55 PM 62.6 °F - 53.6 °F 72% 29.62 in 10.0 mi WNW 3.5 mph - N/A   Overcast
1:15 PM 57.2 °F - 48.2 °F 72% 29.62 in 10.0 mi North 6.9 mph - N/A   Overcast
1:35 PM 55.4 °F - 48.2 °F 77% 29.63 in 10.0 mi North 10.4 mph - N/A   Mostly Cloudy
1:55 PM 55.4 °F - 48.2 °F 77% 29.63 in 10.0 mi North 5.8 mph - N/A   Mostly Cloudy
2:15 PM 57.2 °F - 50.0 °F 77% 29.64 in 10.0 mi North 6.9 mph - N/A   Mostly Cloudy
2:35 PM 59.0 °F - 50.0 °F 72% 29.64 in 10.0 mi North 11.5 mph - N/A   Mostly Cloudy
2:55 PM 57.2 °F - 48.2 °F 72% 29.65 in 10.0 mi North 11.5 mph - N/A   Overcast
3:15 PM 53.6 °F - 44.6 °F 72% 29.65 in 10.0 mi NNW 9.2 mph - N/A   Overcast
3:35 PM 51.8 °F - 44.6 °F 76% 29.67 in 10.0 mi NW 9.2 mph - N/A   Overcast
3:55 PM 48.2 °F - 42.8 °F 82% 29.67 in 10.0 mi NNW 10.4 mph - N/A   Overcast
4:15 PM 46.4 °F 43.5 °F 41.0 °F 81% 29.68 in 10.0 mi NNW 5.8 mph - N/A   Overcast
4:35 PM 46.4 °F 41.1 °F 41.0 °F 81% 29.69 in 10.0 mi North 11.5 mph - N/A   Overcast
4:55 PM 46.4 °F 41.1 °F 41.0 °F 81% 29.71 in 7.0 mi North 11.5 mph 17.3 mph N/A   Overcast
5:55 PM 44.6 °F 40.2 °F 39.2 °F 81% 29.75 in 1.5 mi NNE 8.1 mph 16.1 mph N/A   Overcast
6:15 PM 44.6 °F 39.7 °F 39.2 °F 81% 29.77 in 2.0 mi NNE 9.2 mph - N/A   Overcast
6:35 PM 44.6 °F 39.7 °F 39.2 °F 81% 29.78 in 2.0 mi North 9.2 mph - N/A   Overcast
7:55 PM 41.0 °F 33.9 °F 35.6 °F 81% 29.80 in 5.0 mi NNE 12.7 mph 18.4 mph N/A   Overcast
8:15 PM 39.2 °F 34.2 °F 35.6 °F 87% 29.82 in 2.5 mi NNE 6.9 mph 17.3 mph N/A   Overcast